Regional Weather Roundup
Issued by NWS Cleveland, OH

Home | Current Version | Previous Version | Text Only | Print | Product List | Glossary Off
Versions: 1 2 3 4 5 6 7 8 9 10 11 12 13 14 15 16 17 18 19 20 21 22 23 24 25 26 27 28 29 30 31 32 33 34 35 36 37 38 39 40 41 42 43 44 45 46 47 48 49 50

000
ASUS41 KCLE 170810
RWRCLE
OHIO REGIONAL WEATHER ROUNDUP
NATIONAL WEATHER SERVICE CLEVELAND, OH
400 AM EDT TUE OCT 17 2017

NOTE: "FAIR" INDICATES FEW OR NO CLOUDS BELOW 12,000 FEET WITH NO
SIGNIFICANT WEATHER AND/OR OBSTRUCTIONS TO VISIBILITY.

OHZ001>008-015>018-024>027-034-035-043-044-170900-
   NORTHWEST OHIO

CITY           SKY/WX    TMP DP  RH WIND       PRES   REMARKS
DEFIANCE       CLEAR     42  36  79 SW3       30.27S
FINDLAY        CLEAR     41  36  82 S7        30.27F
TOLEDO EXPRESS CLEAR     43  41  93 S6        30.25F
TOLEDO EXEC    CLEAR     44  39  82 S7        30.27S
LIMA           CLEAR     42  38  85 S7        30.28F
$$

OHZ009>014-019>023-028>033-038-089-170900-
   NORTHEAST OHIO

CITY           SKY/WX    TMP DP  RH WIND       PRES   REMARKS
CLE-HOPKINS    CLEAR     41  35  79 S6        30.30F
CLE-LAKEFRONT  CLEAR     45  35  68 SE13      30.27F
CUY CO. ARPT   NOT AVBL
LORAIN-ELYRIA    N/A    N/A N/A N/A MISG      30.29S
ASHTABULA      CLEAR     37  34  89 S3        30.29F
AKRON-CANTON   CLEAR     40  34  79 S5        30.30S
WOOSTER        CLEAR     34  32  92 CALM      30.31S
MANSFIELD      CLEAR     39  36  89 S5        30.29S
YOUNGSTOWN     CLEAR     37  32  82 CALM      30.29S
$$

OHZ042-051>053-060>062-070>072-077>081-170900-
  SOUTHWEST OHIO

CITY           SKY/WX    TMP DP  RH WIND       PRES   REMARKS
CINC-COVINGTON CLEAR     40  40 100 CALM      30.32R
CINC-LUNKEN    FOG       42  42 100 CALM      30.34S VSB 1
HAMILTON       CLEAR     36  35  96 CALM      30.33S
DAYTON         CLEAR     45  40  82 SW8       30.31S
WRIGHT-PAT AFB CLEAR     39  39 100 CALM      30.31F
DAYTON GENERAL CLEAR     42  36  79 CALM      30.31S
WILMINGTON     CLEAR     41  38  89 CALM      30.32S
$$

OHZ036-037-039>041-045>050-054>059-063>069-073>076-082>088-170900-
  CENTRAL AND SOUTHEAST OHIO

CITY           SKY/WX    TMP DP  RH WIND       PRES   REMARKS
COLUMBUS       CLEAR     41  39  93 SE3       30.31S
OSU AIRPORT    CLEAR     41  41 100 CALM      30.31S
BOLTON FIELD   CLEAR     38  37  95 SW3       30.32S
RICKENBACK AFB CLEAR     39  39  99 CALM      30.31F
NEWARK         CLEAR     38  35  89 CALM      30.32R
MARION         CLEAR     40  36  86 S7        30.30S
LANCASTER      CLEAR     36  35  96 CALM      30.32S
ZANESVILLE     CLEAR     38  35  89 CALM      30.32S
NEW PHILLY     NOT AVBL
$$




USA.gov is the U.S. government's official web portal to all federal, state and local government web resources and services.